{"data":{"norad_id":67651,"epoch":"2026-09-19T20:10:25.517568Z","epoch_age_seconds":125880,"freshness":"FRESH","line1":"1 67651U 26022D   26262.84057312  .00025749  00000+0  79692-3 0  9997","line2":"2 67651  97.2854 294.3751 0000595  86.1150 274.0161 15.33455966 35324","mean_motion":15.33455966,"eccentricity":5.95e-5,"inclination_deg":97.2854,"raan_deg":294.3751,"arg_perigee_deg":86.115,"mean_anomaly_deg":274.0161,"bstar":0.00079692,"rev_number":3532,"period_min":93.905533117865,"perigee_km":465.10335054272,"apogee_km":465.91774460089,"semimajor_km":6843.6475475718,"source":"CELESTRAK","updated_at":"2026-09-20T09:00:43.618435Z"}}